| time (UTC) | temp F | wind direction | speed knots | gust knots | rain 1hr in | rain 24hr in | rain mn in | humidity % | barometer mb |
| 20260505004532 | 74 | 280 | 5.2 | 0.0 | 0.00 | 0.00 | 0.00 | 39 | 1004.7 |
| 20260505003106 | 74 | 290 | 6.1 | 0.0 | 0.00 | 0.00 | 0.00 | 36 | 1004.7 |
| 20260505001632 | 74 | 288 | 6.1 | 0.0 | 0.00 | 0.00 | 0.00 | 33 | 1004.8 |
| 20260505000051 | 73 | 301 | 6.1 | 0.0 | 0.00 | 0.00 | 0.00 | 33 | 1004.9 |
| 20260504234558 | 74 | 292 | 4.3 | 0.0 | 0.00 | 0.00 | 0.00 | 35 | 1004.9 |
| 20260504233023 | 73 | 306 | 6.1 | 0.0 | 0.00 | 0.00 | 0.00 | 37 | 1004.9 |
| 20260504231524 | 72 | 306 | 5.2 | 0.0 | 0.00 | 0.00 | 0.00 | 38 | 1005.1 |
| 20260504230002 | 73 | 283 | 4.3 | 0.0 | 0.00 | 0.00 | 0.00 | 34 | 1005.2 |
| 20260504224501 | 73 | 280 | 6.1 | 0.0 | 0.00 | 0.00 | 0.00 | 31 | 1005.3 |
| 20260504223048 | 75 | 278 | 3.5 | 0.0 | 0.00 | 0.00 | 0.00 | 30 | 1005.4 |
| 20260504221547 | 74 | 278 | 5.2 | 0.0 | 0.00 | 0.00 | 0.00 | 30 | 1005.6 |
| 20260504220044 | 74 | 279 | 4.3 | 0.0 | 0.00 | 0.00 | 0.00 | 33 | 1005.6 |
| 20260504214543 | 74 | 279 | 4.3 | 0.0 | 0.00 | 0.00 | 0.00 | 34 | 1005.9 |
| 20260504213059 | 74 | 283 | 4.3 | 0.0 | 0.00 | 0.00 | 0.00 | 35 | 1005.9 |
| 20260504211540 | 74 | 290 | 3.5 | 0.0 | 0.00 | 0.00 | 0.00 | 35 | 1006.0 |
| 20260504210037 | 73 | 284 | 3.5 | 0.0 | 0.00 | 0.00 | 0.00 | 36 | 1006.2 |
| 20260504204537 | 72 | 307 | 5.2 | 0.0 | 0.00 | 0.00 | 0.00 | 37 | 1006.2 |
| 20260504203017 | 73 | 284 | 1.7 | 0.0 | 0.00 | 0.00 | 0.00 | 40 | 1006.4 |
| 20260504201522 | 72 | 296 | 2.6 | 0.0 | 0.00 | 0.00 | 0.00 | 40 | 1006.5 |
| 20260504200057 | 73 | 279 | 4.3 | 0.0 | 0.00 | 0.00 | 0.00 | 35 | 1006.5 |
| 20260504194604 | 72 | 300 | 4.3 | 0.0 | 0.00 | 0.00 | 0.00 | 39 | 1006.5 |
| 20260504193048 | 71 | 300 | 3.5 | 0.0 | 0.00 | 0.00 | 0.00 | 39 | 1006.6 |
| 20260504191535 | 71 | 294 | 1.7 | 0.0 | 0.00 | 0.00 | 0.00 | 37 | 1006.6 |
| 20260504190016 | 71 | 288 | 2.6 | 0.0 | 0.00 | 0.00 | 0.00 | 37 | 1006.8 |
| 20260504184515 | 70 | 295 | 1.7 | 0.0 | 0.00 | 0.00 | 0.00 | 37 | 1007.0 |
| 20260504183054 | 70 | 284 | 1.7 | 0.0 | 0.00 | 0.00 | 0.00 | 38 | 1007.0 |
| 20260504181552 | 68 | 281 | 2.6 | 0.0 | 0.00 | 0.00 | 0.00 | 36 | 1007.2 |
| 20260504180033 | 69 | 246 | 0.9 | 0.0 | 0.00 | 0.00 | 0.00 | 35 | 1007.3 |
| 20260504174532 | 68 | 240 | 0.9 | 0.0 | 0.00 | 0.00 | 0.00 | 38 | 1007.3 |
| 20260504173023 | 67 | 209 | 1.7 | 0.0 | 0.00 | 0.00 | 0.00 | 40 | 1007.4 |
| 20260504171517 | 67 | 250 | 0.9 | 0.0 | 0.00 | 0.00 | 0.00 | 41 | 1007.5 |
| 20260504081504 | 42 | 280 | 0.0 | 0.0 | 0.00 | 0.00 | 0.00 | 82 | 1008.4 |
| 20260504070118 | 45 | 280 | 0.0 | 0.0 | 0.00 | 0.00 | 0.00 | 79 | 1008.4 |
| 20260504044536 | 53 | 280 | 0.0 | 0.0 | 0.00 | 0.00 | 0.00 | 66 | 1008.5 |
| 20260504043023 | 53 | 280 | 0.0 | 0.0 | 0.00 | 0.00 | 0.00 | 63 | 1008.6 |
| 20260504041559 | 55 | 280 | 0.0 | 0.0 | 0.00 | 0.00 | 0.00 | 59 | 1008.4 |
| 20260504040103 | 56 | 280 | 0.0 | 0.0 | 0.00 | 0.00 | 0.00 | 56 | 1008.4 |
| 20260504034545 | 58 | 280 | 0.0 | 0.0 | 0.00 | 0.00 | 0.00 | 54 | 1008.3 |
| 20260504033049 | 60 | 280 | 0.0 | 0.0 | 0.00 | 0.00 | 0.00 | 48 | 1008.2 |
| 20260504031519 | 63 | 280 | 0.0 | 0.0 | 0.00 | 0.00 | 0.00 | 46 | 1008.1 |
| 20260504030019 | 65 | 280 | 0.0 | 0.0 | 0.00 | 0.00 | 0.00 | 37 | 1008.0 |
| 20260504024501 | 67 | 280 | 0.0 | 0.0 | 0.00 | 0.00 | 0.00 | 36 | 1007.9 |
| 20260504023101 | 69 | 280 | 0.9 | 0.0 | 0.00 | 0.00 | 0.00 | 34 | 1007.9 |
| 20260504021541 | 70 | 280 | 2.6 | 0.0 | 0.00 | 0.00 | 0.00 | 34 | 1008.0 |
| 20260504020040 | 71 | 280 | 2.6 | 0.0 | 0.00 | 0.00 | 0.00 | 34 | 1008.1 |
| 20260504014521 | 72 | 280 | 3.5 | 0.0 | 0.00 | 0.00 | 0.00 | 33 | 1008.1 |
| 20260504013028 | 73 | 279 | 2.6 | 0.0 | 0.00 | 0.00 | 0.00 | 33 | 1008.2 |
| 20260504011501 | 73 | 280 | 3.5 | 0.0 | 0.00 | 0.00 | 0.00 | 33 | 1008.3 |
| 20260504010109 | 73 | 281 | 5.2 | 0.0 | 0.00 | 0.00 | 0.00 | 32 | 1008.5 |